Regional Weather Roundup
Issued by NWS San Diego, CA

Home | Current Version | Previous Version | Text Only | Print | Product List | Glossary On
Versions: 1 2 3 4 5 6 7 8 9 10 11 12 13 14 15 16 17 18 19 20 21 22 23 24 25 26 27 28 29 30 31 32 33 34 35 36 37 38 39 40 41 42 43 44 45 46 47 48 49 50
000
ASUS46 KSGX 010411
RWRSGX

SAN DIEGO HOURLY WEATHER ROUNDUP
NATIONAL WEATHER SERVICE SAN DIEGO CA
900 PM PDT FRI JUL 31 2015

NOTE: "FAIR" INDICATES FEW OR NO CLOUDS BELOW 12,000 FEET WITH NO
SIGNIFICANT WEATHER AND/OR OBSTRUCTIONS TO VISIBILITY.

CAZ042-043-060-061-PZZ750-775-010500-

GREATER SAN DIEGO AREA

CITY           SKY/WX    TMP DP  RH WIND       PRES   REMARKS
LINDBERGH FLD  MOCLDY    71  64  78 NW6       29.99R
POINT LOMA       N/A     68  64  85 NW8         N/A
NATIONAL CITY    N/A     71  66  82 W1        29.98R
CHULA VISTA      N/A     71  67  87 W2        29.91R
IMPERIAL BEACH PTCLDY   N/A N/A N/A W3        29.98R
BROWN FIELD    CLOUDY    68  65  90 W5        29.99R
MIRAMAR MCAS   MOCLDY    72  63  73 W5        29.98R
MONTGOMERY FLD MOCLDY    71  63  75 NW6       29.98R

$$

NORTH SAN DIEGO COUNTY

CITY           SKY/WX    TMP DP  RH WIND       PRES   REMARKS
CAMP PENDLETON MOCLDY    71  65  81 SW5       29.97R
OCEANSIDE AP   CLOUDY    72  66  81 SW3       29.96R
OCEANSIDE HBR    N/A     71  68  91 W2        29.99R
VISTA            N/A     70  65  83 CALM      29.95R
CARLSBAD       CLOUDY    70  65  84 W3        29.97R
DEL MAR          N/A     70  66  87 CALM      29.99R
FALLBROOK        N/A     70  69  96 CALM      29.96R
ESCONDIDO        N/A     72  65  79 SW3       29.99R
POWAY            N/A     70  64  82 CALM      29.98R

$$

EAST SAN DIEGO COUNTY

CITY           SKY/WX    TMP DP  RH WIND       PRES   REMARKS
RAMONA         CLOUDY    70  63  78 W5        30.01R
SANTEE LAKES     N/A     70  65  82 SW10      29.96R
JAMUL            N/A     70  64  82 CALM      29.96R
DESCANSO N       N/A     68  51  52 E5        29.82R
CAMPO            N/A     73  61  65 CALM      30.02R

$$

ORANGE COUNTY AND THE LOS ANGELES BASIN

CITY           SKY/WX    TMP DP  RH WIND       PRES   REMARKS
JOHN WAYNE AP  MOCLDY    72  65  78 SW5       29.96R
LAKE FOREST FR   N/A     73  63  71 CALM      29.87R
SANTA ANA        N/A     76  66  71 CALM      29.91R
HUNTINGTON BCH   N/A     71  68  92 W3        29.98R
LOS ALAMITOS   PTCLDY    73  67  80 W7        29.96R
FULLERTON      PTCLDY    76  66  71 W6        29.94R
LONG BEACH     CLEAR     73  66  78 NW9       29.96R
L.A. AP        CLOUDY    69  66  90 W12       29.97R
L.A. DOWNTOWN  MOCLDY    71  66  84 W6        29.96R

$$

THE INLAND EMPIRE

CITY           SKY/WX    TMP DP  RH WIND       PRES   REMARKS
CORONA         PTCLDY    78  65  64 W9        29.96R
CHINO          FAIR      80  65  59 W12       29.97R
ONTARIO        MOCLDY    82  62  50 W12       29.96R
SAN BERNARDINO CLEAR     82  59  44 SW8       29.98
RIVERSIDE AP   MOCLDY    81  64  56 W9        29.96R
MORENO VALLEY    N/A     81  66  60 CALM      29.95R
MARCH ARB      CLOUDY    80  62  53 NW3       29.99R
HORSETHIEF CYN   N/A     80  59  47 W1        29.97R
PERRIS           N/A     82  62  50 W3        30.00R
MENIFEE          N/A     81  65  58 S2        30.03R
HEMET EAST       N/A     81  52  36 CALM      29.97R
FRENCH VALLEY  FAIR      75  63  64 S6        30.00R
TEMECULA         N/A     77  64  64 SE2       29.94R

$$

SAN BERNARDINO AND RIVERSIDE COUNTY MOUNTAINS

CITY           SKY/WX    TMP DP  RH WIND       PRES   REMARKS
BIG BEAR AP    CLOUDY    61  54  77 CALM      30.34S
PINE COVE        N/A     67  38  34 CALM      29.98R

$$

SOUTHERN DESERT INCLUDING THE COACHELLA VALLEY

CITY           SKY/WX    TMP DP  RH WIND       PRES   REMARKS
PALM SPRINGS   MOCLDY    99  53  21 NW12      29.86R HX  96
THOUSAND PALMS   N/A     96  60  29 NW10      29.81R HX  96
THERMAL        MOCLDY   100  53  20 N10       29.78R HX  98
BLYTHE         CLOUDY   103  53  19 S7        29.82R HX 101
IMPERIAL AP    PTCLDY    93  47  20 W7        29.79R
EL CENTRO NAS  MOCLDY    97  42  15 W12       29.81R
YUMA AZ        CLOUDY   103  54  19 W3        29.80S HX 101
MEXICALI       PTCLDY   100  36  10 NW7       29.81  HX  95

$$

UPPER DESERT

CITY           SKY/WX    TMP DP  RH WIND       PRES   REMARKS
VICTORVILLE AP CLOUDY    82  54  36 SW6G14    30.05R
HESPERIA         N/A     80  60  49 SW8       29.99R
APPLE VALLEY     N/A     82  55  39 S5        30.07R
PALMDALE       PTCLDY    82  53  36 W10       30.02R
LANCASTER      PTCLDY    84  55  36 SW13      30.01R
EDWARDS AFB    MOCLDY    85  57  37 SW17      29.98R
DAGGETT        MOCLDY    91  57  31 NW9       29.94R
29 PALMS N     MOCLDY    91  58  32 SW14      30.01R
NEEDLES        MOCLDY   100  57  23 W8        29.85R HX  99

$$

REGIONAL REPORTS

CITY           SKY/WX    TMP DP  RH WIND       PRES   REMARKS
SANTA BARBARA  CLEAR     67  62  84 S5        29.94S
SANDBERG       PTCLDY    73  55  53 S9        30.20R
LAS VEGAS NV   CLOUDY    96  53  23 W8        29.91R
PHOENIX AZ     LGT RAIN  82  70  66 NE10      29.95F
TIJUANA        PTCLDY    68  61  77 W3        30.01
ENSENADA NW      N/A     70  32  24 NW3       29.94R

$$

OFFSHORE ISLANDS

CITY           SKY/WX    TMP DP  RH WIND       PRES   REMARKS
CATALINA ARPT  CLEAR     62  59  90 CALM      30.02R
SAN NICOLAS IS CLOUDY   N/A N/A N/A W14       29.98R

$$

MARINE AND OFFSHORE BUOY REPORTS

STATION/POSITION SKY/WX   TEMP    WIND        PRES    SWELL
                          AIR SEA DIR/SP/G            HT/PER/DIR
                          (F)     (DEG/KT/KT) (MB)    (FT/S/D)
TANNER BANKS               67 69  320/ 14/ 16 1015.1R   3/200/14
S CLEMENTE BASIN           67 70  300/ 10/ 12 1014.8R   3/200/13
SAN NICOLAS IS.               65                N/A     2/200/13
SO. S. ROSA ISLA           65 69  320/ 16/ 17 1013.9R   3/14
W. S. BARBARA CH           63 66  310/ 19/ 23 1013.5R   3/200/15
M. S. BARBARA CH           66 69  240/ 12/ 16 1014.5S
S. MONICA BASIN            68 74  300/  8/ 10 1014.4R   2/220/15
S PEDRO CHANNEL               72                N/A     2/180/17
DANA POINT                    72                N/A     2/190/17
OCEANSIDE OFFSHR              73                N/A     3/220/13
TORREY PINES OTR              74                N/A     3/210/14
LA JOLLA 1                 70 67  300/  4/  5 1014.6R
MISSION BAY BUOY              72                N/A     2/210/14
SAN DIEGO BAY                 76              1015.2R
POINT LOMA SOUTH              71                N/A     2/190/17

$$




USA.gov is the U.S. government's official web portal to all federal, state and local government web resources and services.